Regional Weather Roundup
Issued by NWS Kansas City/Pleasant Hill, MO

Home | Current Version | Previous Version | Text Only | Print | Product List | Glossary On
Versions: 1 2 3 4 5 6 7 8 9 10 11 12 13 14 15 16 17 18 19 20 21 22 23 24 25 26 27 28 29 30 31 32 33 34 35 36 37 38 39 40 41 42 43 44 45 46 47 48 49 50
000
ASUS43 KEAX 131210
RWREAX

WEATHER ROUNDUP FOR EASTERN KANSAS AND NORTHWEST MISSOURI
NATIONAL WEATHER SERVICE KANSAS CITY/PLEASANT HILL MO
600 AM CST SAT FEB 13 2016

KSZ040-057-103>105-MOZ028-029-037-043-131300-
...KANSAS CITY METROPOLITAN AREA...

CITY           SKY/WX    TMP DP  RH WIND       PRES   REMARKS
K.C. INTL      CLOUDY    16   4  59 E9        30.60R WCI   4
6HR MIN TEMP:  16; 6HR MAX TEMP:  19;

K.C. DOWNTOWN  CLOUDY    18   3  52 NE8       30.63R WCI   8
6HR MIN TEMP:  18; 6HR MAX TEMP:  21;

LEES SUMMIT    CLOUDY    16   1  51 NE10      30.59S WCI   4
6HR MIN TEMP:  16; 6HR MAX TEMP:  19;

OLATHE - IXD   CLOUDY    18   1  47 NE9       30.59R WCI   7
6HR MIN TEMP:  18; 6HR MAX TEMP:  21;

OLATHE - OJC   CLOUDY    17   1  49 NE12      30.58R WCI   4
6HR MIN TEMP:  16; 6HR MAX TEMP:  20;

LAWRENCE       CLOUDY    18   1  47 NE10      30.60F WCI   6

$$

MOZ001>008-011>017-020>025-030>033-038>040-044>046-053-054-131300-
...NORTHERN AND CENTRAL MISSOURI...

CITY           SKY/WX    TMP DP  RH WIND       PRES   REMARKS
ST. JOSEPH     CLOUDY    15   2  56 NE6       30.64S WCI   6
6HR MIN TEMP:  15; 6HR MAX TEMP:  17;

MOSBY            N/A     18   3  53 NE5       30.63S WCI  11
WARRENSBURG    CLOUDY    18   5  57 NE9       30.63R WCI   6
WHITEMAN AFB   CLOUDY    15   2  56 NE10      30.61R WCI   3
6HR MIN TEMP:  15; 6HR MAX TEMP:  18;

CLINTON          N/A     19   5  53 NE10      30.61S WCI   8
SEDALIA        CLOUDY    16   2  54 NE9       30.62S WCI   4
6HR MIN TEMP:  16; 6HR MAX TEMP:  19;

WARSAW         NOT AVBL
CHILLICOTHE      N/A     11   0  61 NE7       30.66S WCI   0
6HR MIN TEMP:  11; 6HR MAX TEMP:  14;

KIRKSVILLE     CLOUDY     6  -2  69 N9        30.63R WCI  -8
6HR MIN TEMP:   6; 6HR MAX TEMP:  10;


$$

MOZ041-047>049-056>058-063>065-088>090-097-131300-
...EASTERN AND SOUTHERN MISSOURI...

CITY           SKY/WX    TMP DP  RH WIND       PRES   REMARKS
ST. LOUIS INTL PTCLDY    12   1  61 N9        30.63S WCI   0
6HR MIN TEMP:  12; 6HR MAX TEMP:  18;

SPIRIT OF STL  PTCLDY    12   2  64 N7        30.64S WCI   1
COLUMBIA       CLOUDY    12   2  64 N7        30.62R WCI   1
JEFFERSON CITY CLOUDY    14   1  56 NE6       30.65R WCI   5
ROLLA          CLOUDY    14   2  58 NE8       30.55F WCI   3
OSAGE BEACH    CLOUDY    18   1  49 N6        30.58S WCI   9
SPRINGFIELD    CLOUDY    22   3  44 NE10      30.51R WCI  11
BRANSON        CLOUDY    25   7  46 NE8       30.50S WCI  16
JOPLIN         CLOUDY    24   6  46 NE9       30.54R WCI  14
WEST PLAINS    CLOUDY    22   1  40 N9        30.52S WCI  12

$$

IAZ060-094-KSZ022-034>040-054-083-096-NEZ052-066-093-131300-
...KANSAS...SOUTHEAST NEBRASKA AND IOWA...

CITY           SKY/WX    TMP DP  RH WIND       PRES   REMARKS
TOPEKA         CLOUDY    20   6  55 NE10      30.60R WCI   9
6HR MIN TEMP:  20; 6HR MAX TEMP:  22;

MANHATTAN      CLOUDY    19   4  51 E9        30.57R WCI   8
EMPORIA        CLOUDY    19   3  49 NE9       30.53S WCI   8
CHANUTE        CLOUDY    23   5  46 NE10      30.54S WCI  12
WICHITA        CLOUDY    24  10  55 E14       30.48S WCI  12
OMAHA          CLOUDY     9   0  67 E5        30.63S WCI   1
LINCOLN        CLOUDY    15   3  59 E6        30.58F WCI   6
FALLS CITY     CLOUDY    15   3  59 E9        30.61S WCI   3
LAMONI         CLOUDY     6  -2  69 NE3       30.62R
DES MOINES     CLOUDY     4  -5  66 N5        30.63S WCI  -5

$$




USA.gov is the U.S. government's official web portal to all federal, state and local government web resources and services.